www.pogodaiklimat.ru

Погода и климат >> Архив погоды >> Бразилия >> Минас-Жерайс >> Итиютаба


ПОГОДА в Итиютабе

  • Прогноз погоды в Итиютабе
  • Монитор погоды в Итиютабе

АРХИВ ПОГОДЫ в Итиютабе

Время (UTC), дата Ветер
(напр.,м/с)
 
Видим.   Явления Облачность Т
(С)
Тd
(С)
f
(%)
Тe
(С)
Тes
(С)
Комфортность P
(гПа)
Po
(гПа)
Тmin
(С)
Tmax
(С)
R
(мм)
R24
(мм)
S
(см)
16 17.03 З 1
{2}
н/о н/о +29.9 +25.3 76 +43 +43 опасность
перегрева
1011.3 951.5
17 17.03 ЮЗ 1
{3}
н/о н/о +31.4 +25.7 72 +46 +46 опасность
перегрева
1009.9 950.5
18 17.03 штиль 0
{3}
н/о н/о +30.3 +24.0 69 +42 +42 опасность
перегрева
1009.5 949.9
19 17.03 штиль 0
{2}
н/о н/о +31.1 +24.5 68 +44 +44 опасность
перегрева
1008.0 948.7
20 17.03 С 2
{4}
н/о н/о +28.2 +20.8 64 +35 +35 очень
душно
1009.0 949.0
21 17.03 С 1
{4}
н/о н/о +27.3 +20.5 66 +34 +34 очень
душно
1010.3 950.1
22 17.03 штиль 0
{3}
н/о н/о +25.5 +19.4 69 +31 +31 очень
душно
1011.2 950.6
23 17.03 штиль 0
{1}
н/о н/о +25.2 +20.0 73 +31 +31 очень
душно
1011.8 951.1
00 18.03 Ю 1
{2}
н/о н/о +24.8 +20.1 75 +30 +30 душно 1012.5 951.7
01 18.03 штиль 0
{2}
н/о н/о +23.9 +19.8 78 +29 +29 душно 1013.6 952.5
02 18.03 штиль 0
{1}
н/о н/о +23.1 +19.5 80 +30 +30 очень
душно
1013.6 952.4
03 18.03 штиль 0
{2}
н/о н/о +23.2 +20.0 82 +30 +30 очень
душно
1013.8 952.6
04 18.03 штиль 0 н/о н/о +22.8 +19.9 84 +29 +29 очень
душно
1013.3 952.0
05 18.03 В 1
{1}
н/о н/о +22.7 +20.0 85 +29 +29 очень
душно
1012.9 951.6
06 18.03 штиль 0
{1}
н/о н/о +22.5 +20.0 86 +29 +29 очень
душно
1012.6 951.3
07 18.03 штиль 0
{1}
н/о н/о +22.6 +20.2 86 +29 +29 очень
душно
1012.3 951.0
08 18.03 штиль 0
{1}
н/о н/о +22.2 +19.8 86 +28 +28 душно 1012.8 951.4
09 18.03 штиль 0
{1}
н/о н/о +21.9 +19.7 87 +27 +27 душно 1013.0 951.6
10 18.03 штиль 0
{1}
н/о н/о +23.3 +21.1 87 +31 +31 очень
душно
1013.6 952.4
11 18.03 штиль 0
{1}
н/о н/о +24.6 +22.1 86 +32 +32 очень
душно
1014.1 953.1
12 18.03 СЗ 1
{1}
н/о н/о +26.1 +23.2 84 +35 +35 очень
душно
1014.5 953.8
13 18.03 штиль 0
{2}
н/о н/о +27.4 +24.2 83 +38 +38 очень
душно
1014.3 953.9
14 18.03 С 1
{3}
н/о н/о +29.2 +25.7 81 +43 +43 опасность
перегрева
1013.6 953.6
15 18.03 С 1
{3}
н/о н/о +30.4 +26.2 78 +46 +46 опасность
перегрева
1012.5 952.8
16 18.03 З 1
{3}
н/о н/о +31.5 +26.5 75 +48 +48 опасность
перегрева
1011.3 951.8
17 18.03 С 2
{3}
н/о н/о +31.0 +25.4 72 +45 +45 опасность
перегрева
1009.6 950.1
18 18.03 З 2
{4}
н/о н/о +32.2 +25.7 69 +47 +47 опасность
перегрева
1008.4 949.2
19 18.03 З 1
{3}
н/о н/о +32.3 +24.2 62 +44 +44 опасность
перегрева
1007.8 948.7
20 18.03 ЮЗ 2
{3}
н/о н/о +31.4 +22.7 60 +41 +41 опасность
перегрева
1007.6 948.3
22 18.03 штиль 0
{1}
н/о н/о +26.9 +19.6 64 +33 +33 очень
душно
1009.8 949.5
23 18.03 штиль 0
{1}
н/о н/о +26.7 +20.6 69 +33 +33 очень
душно
1011.4 951.0
00 19.03 ЮЗ 1
{2}
н/о н/о +26.2 +20.6 71 +33 +33 очень
душно
1011.8 951.3
01 19.03 штиль 0
{1}
н/о н/о +24.3 +19.6 75 +30 +30 очень
душно
1012.4 951.5
02 19.03 ЮЗ 1
{2}
н/о н/о +25.1 +20.8 77 +31 +31 очень
душно
1012.6 951.8
03 19.03 штиль 0
{2}
н/о н/о +23.9 +20.2 80 +30 +30 очень
душно
1012.4 951.4
04 19.03 штиль 0 н/о н/о +23.3 +19.9 81 +30 +30 очень
душно
1012.0 950.9
05 19.03 штиль 0 н/о н/о +23.0 +19.9 83 +30 +30 очень
душно
1011.7 950.6
06 19.03 штиль 0 н/о н/о +22.8 +19.9 84 +29 +29 очень
душно
1011.2 950.1
07 19.03 штиль 0 н/о н/о +22.6 +19.9 85 +29 +29 очень
душно
1011.0 949.8
08 19.03 штиль 0
{1}
н/о н/о +22.8 +20.3 86 +30 +30 очень
душно
1011.1 950.0
09 19.03 штиль 0
{1}
н/о н/о +22.8 +20.4 86 +30 +30 очень
душно
1011.6 950.4
10 19.03 штиль 0
{1}
н/о н/о +22.9 +20.6 87 +30 +30 очень
душно
1012.3 951.1
11 19.03 штиль 0
{1}
н/о н/о +23.1 +20.8 87 +31 +31 очень
душно
1012.9 951.7
12 19.03 штиль 0
{1}
н/о н/о +23.4 +21.2 87 +31 +31 очень
душно
1013.6 952.4
13 19.03 штиль 0
{2}
н/о н/о +26.6 +24.2 87 +37 +37 очень
душно
1013.1 952.6
14 19.03 СВ 1
{2}
н/о н/о +28.3 +25.1 83 +41 +41 опасность
перегрева
1012.1 952.0
15 19.03
{2}
н/о н/о +30.4 +26.6 80 1010.8 951.2
16 19.03 С 1
{2}
н/о н/о +31.5 +26.8 76 +49 +49 опасность
перегрева
1009.3 950.0
17 19.03 З 1
{2}
н/о н/о +31.7 +25.7 71 +47 +47 опасность
перегрева
1008.3 949.1
18 19.03 С 1
{6}
н/о н/о +24.7 +20.0 75 +30 +30 очень
душно
1009.7 949.0
19 19.03 ЮЗ 1
{2}
н/о н/о +26.7 +22.2 76 +35 +35 очень
душно
1009.4 949.1
20 19.03 штиль 0
{3}
н/о н/о +25.0 +20.7 77 +31 +31 очень
душно
1010.1 949.5
21 19.03 ЮВ 1
{2}
н/о н/о +24.4 +20.5 79 +30 +30 очень
душно
1010.5 949.7 0.2
22 19.03 штиль 0
{2}
н/о н/о +23.8 +20.3 81 +29 +29 душно 1010.6 949.7
23 19.03 штиль 0
{1}
н/о н/о +23.6 +20.3 82 +29 +29 душно 1011.1 950.1
00 20.03 штиль 0
{1}
н/о н/о +23.4 +20.4 83 +31 +31 очень
душно
1011.9 950.8
01 20.03 штиль 0 н/о н/о +23.3 +20.6 85 +31 +31 очень
душно
1011.9 950.8
02 20.03 штиль 0
{1}
н/о н/о +23.5 +20.8 85 +29 +29 душно 1011.7 950.7
03 20.03 штиль 0
{1}
н/о н/о +23.4 +20.8 85 +31 +31 очень
душно
1011.5 950.5
04 20.03 штиль 0
{1}
н/о н/о +22.9 +20.5 86 +30 +30 очень
душно
1011.4 950.3
05 20.03 штиль 0 н/о н/о +22.1 +19.8 87 +28 +28 душно 1011.0 949.7
06 20.03 штиль 0
{1}
н/о н/о +21.8 +19.6 87 +27 +27 душно 1010.2 948.9
07 20.03 штиль 0
{1}
н/о н/о +21.6 +19.5 88 +27 +27 душно 1009.9 948.6
08 20.03 штиль 0
{1}
н/о н/о +21.2 +19.2 88 +26 +26 душно 1010.3 948.9
09 20.03 штиль 0
{1}
н/о н/о +21.0 +19.0 88 +25 +25 комфорт 1010.8 949.3
10 20.03 штиль 0
{3}
н/о н/о +21.7 +19.9 90 +27 +27 душно 1011.5 950.1
11 20.03 штиль 0
{1}
н/о н/о +23.3 +21.5 90 +31 +31 очень
душно
1012.1 951.0
12 20.03 штиль 0
{1}
н/о н/о +25.9 +23.7 88 +35 +35 очень
душно
1012.0 951.4
13 20.03 Ю 1
{2}
н/о н/о +28.8 +25.8 84 +43 +43 опасность
перегрева
1011.0 951.0
14 20.03 В 1
{2}
н/о н/о +30.3 +26.6 81 +47 +47 опасность
перегрева
1010.4 950.8
15 20.03 З 1
{2}
н/о н/о +31.0 +26.6 77 +47 +47 опасность
перегрева
1010.1 950.6
16 20.03 СВ 1
{2}
н/о н/о +30.5 +25.3 74 +44 +44 опасность
перегрева
1008.7 949.2
17 20.03 Ю 1
{4}
н/о н/о +31.2 +25.1 70 +45 +45 опасность
перегрева
1006.5 947.3
18 20.03 ЮЗ 1
{2}
н/о н/о +32.5 +25.4 66 +47 +47 опасность
перегрева
1005.0 946.1
19 20.03 СЗ 1
{3}
н/о н/о +27.1 +20.2 66 +33 +33 очень
душно
1006.4 946.4 0.2
20 20.03 штиль 0
{5}
н/о н/о +25.6 +20.4 73 +32 +32 очень
душно
1007.1 946.8 4
21 20.03 Ю 3
{7}
н/о н/о +22.8 +18.8 78 +29 +29 очень
душно
1009.3 948.3 6
22 20.03 Ю 1
{6}
н/о н/о +22.7 +19.5 82 +29 +29 очень
душно
1010.0 948.9 5
23 20.03 штиль 0
{2}
н/о н/о +23.0 +20.1 84 +30 +30 очень
душно
1011.6 950.5
00 21.03 штиль 0
{1}
н/о н/о +22.6 +20.0 85 +29 +29 очень
душно
1012.7 951.4 0.4
01 21.03 З 2
{5}
н/о н/о +22.8 +20.3 86 +30 +30 очень
душно
1013.4 952.1
02 21.03 штиль 0
{5}
н/о н/о +21.4 +19.1 87 +26 +26 душно 1013.4 951.8 0.6
03 21.03 штиль 0
{2}
н/о н/о +20.9 +18.6 87 +25 +25 комфорт 1012.9 951.3
04 21.03 штиль 0
{1}
н/о н/о +21.0 +18.9 88 +25 +25 комфорт 1011.5 950.0 0.6
05 21.03 штиль 0
{2}
н/о н/о +21.2 +19.2 88 +26 +26 душно 1011.4 949.9
06 21.03 штиль 0
{2}
н/о н/о +21.2 +19.2 88 +26 +26 душно 1010.7 949.3 0.2
07 21.03 штиль 0
{1}
н/о н/о +20.9 +19.0 89 +25 +25 комфорт 1010.3 948.8
08 21.03 штиль 0
{2}
н/о н/о +20.8 +19.0 89 +25 +25 комфорт 1010.7 949.2
09 21.03 штиль 0
{2}
н/о н/о +20.5 +18.8 90 +24 +24 комфорт 1011.0 949.4
10 21.03 штиль 0
{2}
н/о н/о +20.6 +18.9 90 +24 +24 комфорт 1011.3 949.7
11 21.03 ЮЗ 1
{2}
н/о н/о +21.8 +19.9 89 +27 +27 душно 1011.8 950.4
12 21.03 штиль 0
{2}
н/о н/о +23.8 +21.4 86 +30 +30 очень
душно
1011.9 950.9
13 21.03 З 1
{3}
н/о н/о +24.5 +21.8 85 +31 +31 очень
душно
1012.4 951.5
14 21.03 ЮЗ 2
{3}
н/о н/о +25.6 +22.6 84 +34 +34 очень
душно
1012.3 951.6
16 21.03 З 1
{3}
н/о н/о +27.6 +23.7 79 +38 +38 очень
душно
1010.9 950.7
18 21.03 штиль 0
{3}
н/о н/о +28.0 +23.1 75 +38 +38 очень
душно
1009.2 949.2
20 21.03 З 1
{3}
н/о н/о +27.7 +22.0 71 +36 +36 очень
душно
1008.2 948.2
00 22.03 штиль 0
{1}
н/о н/о +23.7 +19.6 78 +29 +29 душно 1011.5 950.5
01 22.03 Ю 1
{3}
н/о н/о +23.1 +19.4 80 +30 +30 очень
душно
1012.5 951.3
02 22.03 Ю 1
{2}
н/о н/о +23.0 +19.5 81 +30 +30 очень
душно
1012.5 951.3
03 22.03 штиль 0
{2}
н/о н/о +22.5 +19.4 83 +29 +29 очень
душно
1012.3 951.0 0.2
04 22.03 Ю 1
{2}
н/о н/о +22.3 +19.4 84 +28 +28 душно 1011.8 950.5
05 22.03 ЮВ 1
{3}
н/о н/о +22.0 +19.2 84 +27 +27 душно 1011.6 950.3
06 22.03 Ю 1
{2}
н/о н/о +21.5 +19.0 86 +26 +26 душно 1011.5 950.1
07 22.03 ЮВ 1
{2}
н/о н/о +21.2 +18.7 86 +26 +26 душно 1011.7 950.2
08 22.03 Ю 1
{2}
н/о н/о +21.2 +18.7 86 +26 +26 душно 1011.6 950.1
09 22.03 ЮВ 1
{2}
н/о н/о +21.3 +18.9 86 +26 +26 душно 1011.7 950.2
10 22.03 штиль 0
{2}
н/о н/о +21.5 +19.2 87 +26 +26 душно 1012.3 950.8
11 22.03 штиль 0
{1}
н/о н/о +21.7 +19.3 86 +27 +27 душно 1013.4 951.9
12 22.03 штиль 0
{1}
н/о н/о +22.6 +20.2 86 +29 +29 очень
душно
1013.8 952.5
13 22.03 штиль 0
{1}
н/о н/о +24.6 +21.8 84 +31 +31 очень
душно
1013.7 952.8
14 22.03 штиль 0
{2}
н/о н/о +25.7 +22.5 83 +34 +34 очень
душно
1013.7 953.0
15 22.03 ЮЗ 2
{3}
н/о н/о +26.0 +22.5 81 +34 +34 очень
душно
1013.4 952.8
16 22.03 ЮЗ 1
{3}
н/о н/о +26.4 +22.5 79 +35 +35 очень
душно
1012.7 952.2
17 22.03 ЮЗ 2
{3}
н/о н/о +27.2 +22.8 77 +36 +36 очень
душно
1011.4 951.1
18 22.03 ЮЗ 2
{4}
н/о н/о +27.6 +22.6 74 +36 +36 очень
душно
1010.4 950.2
19 22.03 З 2
{4}
н/о н/о +28.5 +22.9 72 +38 +38 очень
душно
1009.8 949.9
20 22.03 ЮЗ 2
{4}
н/о н/о +27.2 +21.5 71 +35 +35 очень
душно
1010.4 950.2
21 22.03 ЮЗ 3
{4}
н/о н/о +24.4 +19.2 73 +29 +29 душно 1011.4 950.6
22 22.03 Ю 1
{4}
н/о н/о +22.8 +18.2 75 +28 +28 душно 1012.2 951.0
23 22.03 Ю 1
{3}
н/о н/о +22.2 +18.2 78 +27 +27 душно 1013.2 951.8
00 23.03 штиль 0
{2}
н/о н/о +21.2 +17.7 80 +25 +25 комфорт 1013.9 952.3
01 23.03 штиль 0
{1}
н/о н/о +21.0 +17.8 82 +25 +25 комфорт 1014.6 952.9
02 23.03 штиль 0 н/о н/о +20.9 +18.1 84 +25 +25 комфорт 1015.0 953.2
03 23.03 штиль 0
{1}
н/о н/о +20.9 +18.2 85 +25 +25 комфорт 1014.6 952.9
04 23.03 Ю 1
{1}
н/о н/о +21.7 +19.2 86 +27 +27 душно 1014.4 952.8
05 23.03 Ю 1
{3}
н/о н/о +21.9 +19.5 86 +27 +27 душно 1013.8 952.3
06 23.03 штиль 0
{2}
н/о н/о +21.4 +19.1 87 +26 +26 душно 1013.7 952.1
07 23.03 штиль 0
{1}
н/о н/о +21.2 +19.0 87 +26 +26 душно 1013.6 952.0
08 23.03 штиль 0
{1}
н/о н/о +20.6 +18.6 88 +24 +24 комфорт 1014.1 952.3
09 23.03 штиль 0
{1}
н/о н/о +20.3 +18.4 89 +24 +24 комфорт 1014.7 952.8
10 23.03 штиль 0
{1}
н/о н/о +20.7 +18.8 89 +25 +25 комфорт 1015.2 953.4
11 23.03 ЮВ 1
{2}
н/о н/о +22.5 +20.5 88 +29 +29 очень
душно
1015.5 954.0
12 23.03 В 2
{3}
н/о н/о +25.3 +22.6 85 +33 +33 очень
душно
1015.3 954.4
13 23.03 В 2
{4}
н/о н/о +26.7 +23.6 83 +36 +36 очень
душно
1015.1 954.5
14 23.03 СВ 1
{4}
н/о н/о +28.7 +24.9 80 +41 +41 опасность
перегрева
1014.5 954.3
15 23.03 СВ 1
{3}
н/о н/о +29.5 +25.0 77 +43 +43 опасность
перегрева
1013.7 953.7
16 23.03 В 1
{2}
н/о н/о +29.9 +24.6 73 +42 +42 опасность
перегрева
1012.4 952.6
17 23.03 С 1
{3}
н/о н/о +30.0 +23.8 69 +41 +41 опасность
перегрева
1011.2 951.5
18 23.03 В 1
{3}
н/о н/о +31.5 +23.9 64 +43 +43 опасность
перегрева
1010.3 950.9
19 23.03 Ю 1
{3}
н/о н/о +30.7 +22.4 61 +40 +40 очень
душно
1009.9 950.4
20 23.03 ЮВ 2
{3}
н/о н/о +29.9 +21.0 59 +37 +37 очень
душно
1010.0 950.3
21 23.03 ЮВ 1
{2}
н/о н/о +29.3 +20.0 57 +36 +36 очень
душно
1010.2 950.4
22 23.03 Ю 1
{2}
н/о н/о +26.6 +18.7 62 +32 +32 очень
душно
1011.3 950.9
23 23.03 Ю 1
{2}
н/о н/о +25.2 +18.6 67 +30 +30 душно 1012.3 951.6
00 24.03 ЮВ 1
{2}
н/о н/о +24.8 +18.9 70 +30 +30 душно 1013.1 952.2
01 24.03 штиль 0
{2}
н/о н/о +23.6 +18.4 73 +28 +28 душно 1013.8 952.7
02 24.03 В 1
{1}
н/о н/о +23.0 +18.4 75 +29 +29 очень
душно
1014.4 953.1
03 24.03 штиль 0
{2}
н/о н/о +22.6 +18.6 78 +28 +28 душно 1014.6 953.2
04 24.03 штиль 0
{1}
н/о н/о +22.2 +18.6 80 +27 +27 душно 1014.4 952.9
05 24.03 штиль 0
{1}
н/о н/о +22.1 +18.8 82 +27 +27 душно 1014.2 952.7
06 24.03 штиль 0 н/о н/о +21.4 +18.4 83 +26 +26 душно 1014.0 952.4
07 24.03 штиль 0
{1}
н/о н/о +21.2 +18.5 85 +26 +26 душно 1013.7 952.1
08 24.03 штиль 0
{1}
н/о н/о +20.8 +18.3 86 +25 +25 комфорт 1013.8 952.1
09 24.03 штиль 0
{1}
н/о н/о +20.7 +18.3 86 +24 +24 комфорт 1014.5 952.7
10 24.03 штиль 0
{1}
н/о н/о +21.2 +18.9 87 +26 +26 душно 1014.8 953.1
11 24.03 В 1
{3}
н/о н/о +23.9 +21.2 85 +30 +30 очень
душно
1015.1 953.9
12 24.03 СВ 1
{3}
н/о н/о +26.7 +23.6 83 +36 +36 очень
душно
1015.2 954.6
13 24.03 С 1
{4}
н/о н/о +28.3 +24.5 80 +40 +40 очень
душно
1014.9 954.6
14 24.03 С 1
{3}
н/о н/о +29.1 +24.5 76 +41 +41 опасность
перегрева
1014.6 954.5
15 24.03 С 1
{3}
н/о н/о +30.5 +25.0 73 +44 +44 опасность
перегрева
1013.7 953.9
16 24.03 В 1
{3}
н/о н/о +30.5 +23.8 67 +42 +42 опасность
перегрева
1012.7 953.0
17 24.03 ЮВ 1
{2}
н/о н/о +31.0 +22.9 62 +41 +41 опасность
перегрева
1012.0 952.4

 

Местоположение метеостанции Итиютаба (Минас-Жерайс, Бразилия): широта -18.95 долгота -49.53 высота над уровнем моря 562 м.

В архиве по умолчанию представлена погода в Итиютабе за последнюю неделю. Архивные данные за месяц целиком и за предыдущие месяцы, начиная с января 2011 года, Вы можете получить, выбрав интересующий диапазон дат из раскрывающегося списка и нажав кнопку "Ввод!".


*Определитесь, кто Вы:
робот инопланетянин человек

Внимание! Время в таблицах - всемирное. Для получения местного времени необходимо прибавить поправку, которая равна -3 ч.

Смотрите также архив погоды в соседних городах и на ближайших метеорологических станциях:

Погода в Капина-Верде (Минас-Жерайс, Бразилия) (65 км)
Погода в Итумбиаре (Гояс, Бразилия) (68 км)
Погода в Сан-Симао (Гояс, Бразилия) (116 км)
Погода в Уберландии (Минас-Жерайс, Бразилия) (135 км)
Погода в Морриньюсе (Гояс, Бразилия) (144 км)
Погода в Вотупоранге (Сан-Паулу, Бразилия) (169 км)
Погода в Вотупоранге (Сан-Паулу, Бразилия) (170 км)
Погода в Жалисе (Сан-Паулу, Бразилия) (176 км)
Погода в Консейсан-дас-Алагоасе (Минас-Жерайс, Бразилия) (185 км)
Погода в Рио-Верде (Гояс, Бразилия) (186 км)

Пояснения к столбцам:

Ветер - указаны скорость ветра в м/с - средняя за 10 мин, порывы в срок и между сроками (в фигурных скобках) и направление, откуда дует ветер: С - северный, СВ - северо-восточный, В - восточный, ЮВ - юго-восточный, Ю - южный, ЮЗ - юго-западный, З - западный, СЗ - северо-западный.
Видимость - горизонтальная дальность видимости в метрах или километрах. При видимости от 1 до 10 км при отсутствии осадков обычно наблюдается дымка, при ухудшении видимости до 1 км и менее - туман. В сухую погоду видимость может ухудшаться дымом, пылью или мглою.
Явления - указаны атмосферные явления, наблюдавшиеся в срок или в последний час перед сроком; фигурными скобками обозначены явления, наблюдавшиеся между сроками (за 1-3 часа до срока); квадратными скобками обозначены град или гололедные отложения с указанием их диаметра в мм.
Облачность - указаны через наклонную черту общая и нижняя облачность в баллах и высота нижней границы облаков в метрах; квадратными скобками обозначены формы облаков: Ci - перистые, Cs - перисто-слоистые, Cc - перисто-кучевые, Ac - высококучевые, As - высокослоистые, Sc - слоисто-кучевые, Ns - слоисто-дождевые, Cu - кучевые, Cb - кучево-дождевые. Подробнее классификацию облаков см. в Атласе облаков (PDF).
T - Температура воздуха - температура, измеренная на высоте 2 м над землей.
Td - Температура точки росы - температура, при понижении до которой содержащийся в воздухе водяной пар достигнет насыщения.
f - Относительная влажность воздуха - влажноcть воздуха, измеренная на высоте 2 м над землей.
Te - Эффективная температура - температура, которую ощущает одетый по сезону человек в тени. Характеристика душности погоды. При расчете учитывается влияние влажности воздуха и скорости ветра на теплоощущения человека.
Tes - Эффективная температура на солнце - температура, которую ощущает человек, с поправкой на солнечный нагрев. Характеристика знойности погоды. Зависит от высоты солнца над горизонтом, облачности и скорости ветра. Ночью, в пасмурную погоду, а также при ветре 12 м/с и более поправка равна нулю.
P - Атмосферное давление - приведенное к уровню моря атмосферное давление.
Po - Атмосферное давление - измеренное на уровне метеостанции атмосферное давление.
Tmin - Минимальная температура - минимум температуры воздуха на высоте 2 м над землей.
Tmax - Максимальная температура - максимум температуры воздуха на высоте 2 м над землей.
R - Количество осадков - Количество выпавших осадков за период времени, мм. При наведении курсора мыши на число - период времени, за который выпало указанное количество осадков.
R24 - Количество осадков - Количество выпавших осадков за 24 часа, мм.
S - Снежный покров - Высота снежного покрова, см. При наведении курсора мыши на число - состояние снежного покрова и степень покрытия местности в баллах.